Wind_Speed
35 35 35 35 35 35 35 36 38 38 38 38 39 39 39 40 40 40 40 40 40 41 41 41 41 42 42 43 43 44 45 45 46 46 46 47 47 48 50 51 51 51 50 50
33 33 34 34 33 34 34 34 36 37 37 38 39 39 38 38 39 38 39 39 39 39 39 39 40 40 40 41 42 43 44 44 45 45 46 47 47 48 48 49 50 51 50 50
31 31 33 32 31 32 33 33 34 35 35 36 37 37 37 37 37 37 37 37 38 37 38 38 38 38 38 39 40 41 41 42 43 44 44 46 47 48 48 48 49 50 50 49
31 31 31 30 31 32 32 32 33 33 33 34 36 36 36 36 36 36 35 36 37 37 37 36 36 36 37 37 38 39 39 39 40 42 43 43 44 45 46 47 48 48 48 47
31 31 30 29 29 30 30 30 31 31 32 33 34 35 35 35 35 36 35 36 36 36 35 34 34 35 35 36 36 36 37 36 37 38 40 41 42 43 43 44 46 47 47 46
30 31 31 30 30 30 31 30 30 31 32 33 34 34 33 34 35 35 35 34 34 33 34 33 32 32 32 33 33 33 34 34 34 35 36 38 39 40 41 42 43 44 45 46
29 30 30 30 31 30 31 31 31 31 32 33 33 34 33 33 34 34 34 33 33 33 32 32 31 32 32 32 32 32 32 33 33 33 33 34 36 37 38 39 41 42 43 44
28 29 29 30 31 31 31 31 31 32 32 33 33 33 33 33 33 33 33 32 32 32 31 30 30 31 31 31 31 31 31 31 31 31 31 32 33 34 35 36 38 39 41 41
28 28 29 30 30 31 31 31 31 32 32 32 31 32 32 32 32 33 33 33 32 31 31 30 30 29 29 29 29 29 30 30 31 31 32 32 32 33 33 34 36 37 38 39
27 28 29 29 30 31 31 31 30 31 31 31 32 32 32 32 32 32 32 32 31 30 29 29 30 30 29 28 29 29 30 30 29 30 32 32 32 32 33 34 35 35 36 37
28 28 29 29 31 31 31 31 30 30 30 32 32 33 33 33 32 32 31 30 30 29 28 28 28 29 30 30 30 30 30 31 32 32 32 32 33 33 32 32 33 34 34 35
30 30 31 30 31 31 31 31 30 30 31 32 32 33 33 33 32 31 30 29 28 28 27 27 27 28 29 30 30 31 31 32 33 33 32 32 33 33 34 33 33 33 34 35
30 31 31 31 30 30 30 30 30 30 31 31 32 32 32 31 30 29 29 28 27 26 26 26 26 26 27 27 28 29 30 31 31 32 32 33 33 33 33 34 34 34 35 35
30 30 30 30 30 30 30 29 29 30 30 31 31 31 31 31 30 29 28 28 27 26 25 25 25 25 25 26 26 27 27 29 30 30 31 32 31 32 32 33 33 33 33 34
29 29 29 30 30 30 30 29 29 29 29 30 30 30 29 30 30 29 28 27 27 26 26 25 25 25 25 25 25 25 26 27 28 29 29 30 30 30 30 31 31 32 32 32
28 28 29 29 29 29 29 29 29 29 29 29 29 29 29 29 29 28 28 27 26 26 26 25 25 25 25 25 26 26 26 26 26 26 27 27 28 29 29 29 30 30 31 31
27 28 28 28 29 29 28 28 28 28 29 29 29 29 29 28 28 28 27 27 26 26 25 25 25 25 25 25 25 26 25 25 25 25 25 26 26 27 28 28 28 28 28 28
27 27 27 27 27 27 27 27 27 27 28 28 28 28 28 27 27 27 27 26 26 25 25 25 25 25 25 25 25 25 24 24 24 24 24 25 25 25 26 26 26 26 26 26
26 26 27 26 26 25 25 26 26 26 27 27 27 27 26 26 26 26 26 26 25 25 25 25 24 25 25 24 23 23 23 23 23 23 23 23 23 23 24 24 25 25 24 24
25 26 26 26 26 26 26 26 26 26 26 26 26 26 26 26 26 26 26 25 25 25 24 23 23 23 23 22 22 22 22 22 21 21 21 21 21 22 22 23 23 24 24 24
25 26 26 26 26 26 26 26 26 26 26 26 26 26 26 26 26 26 26 26 25 24 24 23 22 21 21 21 21 21 21 21 21 21 21 21 21 21 22 23 23 23 23 24
25 25 26 26 26 26 26 26 26 26 26 26 27 27 27 27 27 27 26 26 25 25 24 23 22 21 20 20 20 20 20 21 21 21 21 21 21 21 22 23 23 23 23 24
24 24 24 25 25 25 26 26 26 26 26 27 27 28 28 28 28 27 27 26 25 24 23 23 22 21 20 20 20 20 20 20 21 21 21 21 21 21 22 22 23 23 23 23
23 23 23 24 24 25 25 25 25 26 27 27 28 28 28 28 28 27 26 25 24 23 23 22 22 21 21 20 20 20 20 20 20 20 21 21 21 21 22 22 22 22 23 23
23 23 23 23 24 24 24 25 25 26 27 28 28 28 28 28 27 25 24 24 23 23 23 22 21 21 21 21 20 20 20 20 20 20 21 21 21 21 22 22 22 22 23 23
23 23 23 23 24 24 25 25 26 26 27 28 28 27 27 26 25 24 23 22 22 22 22 22 22 21 22 22 21 21 21 21 21 22 22 22 22 22 22 22 23 23 23 23
23 23 24 24 25 25 25 26 27 27 27 26 26 26 25 25 24 23 23 23 22 22 22 22 22 22 22 22 22 23 22 22 22 23 23 23 23 23 24 23 23 23 24 24
Wind_Direction
275 274 274 276 277 278 277 277 278 280 281 282 284 286 287 288 288 287 286 284 282 281 279 278 276 273 270 267 265 264 263 261 261 260 259 259 257 255 254 253 253 252 252 252
275 274 274 275 277 278 278 278 278 279 281 283 285 287 288 289 290 289 286 285 283 282 280 279 277 274 272 269 267 266 264 262 262 261 260 258 257 255 254 253 252 252 253 253
277 275 275 276 278 278 279 280 281 281 283 284 287 288 289 290 289 289 287 286 285 282 281 280 278 276 274 271 268 266 264 262 262 261 260 259 258 256 255 254 253 253 253 254
279 277 277 280 280 280 280 282 283 284 285 287 289 290 291 291 289 290 290 288 286 285 282 281 278 275 274 272 269 265 263 263 263 261 260 259 257 256 256 254 253 252 253 253
281 281 281 281 282 283 283 284 285 286 286 288 290 291 292 291 291 292 291 290 288 287 284 282 279 275 273 271 269 266 262 263 262 261 260 258 257 257 257 255 254 253 253 252
281 282 282 283 284 284 285 286 286 287 288 290 291 291 292 291 291 291 292 291 289 288 286 282 279 276 273 271 268 266 263 264 263 262 261 259 258 259 258 257 255 253 253 254
280 280 281 283 285 285 286 288 288 289 290 291 291 292 292 292 292 292 292 292 289 287 287 283 279 275 273 270 268 266 265 265 262 262 263 262 260 260 259 258 256 254 254 255
280 279 281 283 284 285 287 289 290 290 291 291 292 293 294 294 294 293 293 292 290 287 285 283 279 275 273 270 267 265 264 264 263 263 263 263 261 261 260 259 257 255 255 255
281 281 282 284 286 287 288 290 290 291 291 291 292 294 295 294 294 294 294 292 290 288 284 282 279 275 273 269 266 265 264 264 264 264 263 263 263 263 261 259 258 257 256 256
282 283 283 284 286 287 288 289 290 291 292 293 293 294 295 295 293 294 294 293 291 289 285 281 278 275 273 270 267 266 265 265 264 263 263 262 264 265 262 260 260 259 257 256
282 283 283 284 286 287 288 289 290 292 292 293 294 294 295 296 295 293 293 293 291 289 286 282 279 277 274 272 270 269 268 268 266 266 266 266 264 264 264 263 263 262 260 259
284 285 286 286 287 286 287 288 289 291 293 293 294 294 295 296 296 294 292 292 291 289 286 282 280 278 275 273 271 270 269 268 267 267 267 267 266 266 265 264 264 263 263 262
284 285 286 287 287 286 287 288 289 291 292 294 295 295 296 297 297 295 293 292 291 289 288 284 281 279 277 274 273 271 269 268 268 268 268 269 268 266 265 265 265 265 265 263
285 286 285 286 287 287 287 288 289 290 291 294 296 296 297 297 296 295 292 292 291 290 289 287 283 280 278 276 276 273 271 270 270 270 270 270 269 267 265 265 265 265 265 264
286 286 286 287 287 288 289 289 289 289 291 293 295 296 296 297 296 294 293 292 291 290 288 286 283 281 279 278 277 275 272 270 270 270 270 270 268 266 265 266 266 265 264 263
286 286 286 287 289 290 290 290 290 291 292 293 295 295 296 297 296 295 293 292 291 290 288 286 283 282 281 279 278 276 274 272 270 270 271 270 268 266 266 266 266 266 265 263
289 287 287 289 291 291 291 291 292 293 294 295 295 295 296 296 295 295 293 292 291 290 288 286 284 283 282 279 278 277 275 273 271 271 271 271 270 268 266 266 266 265 265 263
288 288 288 289 290 291 291 292 294 294 295 296 297 297 296 296 295 294 293 292 291 290 289 288 286 284 283 281 279 276 273 272 272 272 273 272 271 269 268 267 265 264 262 262
287 288 288 288 289 290 291 292 294 295 296 297 297 297 297 296 295 295 294 292 292 291 290 288 287 285 284 282 280 277 275 273 272 272 273 274 273 272 271 269 267 265 263 263
288 288 288 288 289 290 292 294 295 296 296 297 298 298 298 297 296 295 294 294 294 293 291 290 288 287 285 282 278 277 275 274 273 272 272 273 273 272 271 269 267 266 265 264
289 288 288 289 289 291 293 294 294 295 296 298 299 300 300 298 297 296 295 295 295 293 291 289 288 286 285 282 278 275 274 273 272 273 273 273 273 272 270 268 267 267 265 265
290 290 290 290 291 292 293 293 294 295 296 297 299 300 300 299 297 297 295 294 293 292 290 288 287 285 284 281 278 275 273 272 271 270 271 272 273 273 272 269 268 268 267 266
292 292 293 293 293 293 293 293 293 294 295 296 298 299 299 299 297 296 295 293 291 290 289 287 285 284 282 280 277 275 273 272 271 270 271 272 273 273 274 272 269 268 267 267
295 294 295 296 297 297 296 295 295 294 295 296 297 298 298 298 297 295 294 292 290 289 288 287 285 282 280 279 278 276 275 273 271 271 271 273 274 274 273 272 270 269 268 268
297 297 296 297 298 300 300 299 298 297 296 297 297 297 298 297 296 294 293 292 290 288 286 285 284 281 279 278 276 275 275 274 273 272 273 274 274 274 272 271 270 269 269 268
299 299 298 299 299 301 302 301 300 299 299 299 298 297 296 296 295 293 292 291 290 288 286 284 283 282 279 277 275 274 274 274 274 274 274 274 274 274 274 273 271 269 269 268
303 303 302 301 302 303 303 303 302 301 301 301 300 299 297 296 294 292 291 290 288 287 286 285 284 282 280 278 275 274 274 274 275 275 275 274 274 274 274 274 273 271 269 268
Height
5558 5558 5557 5556 5556 5555 5554 5553 5552 5551 5549 5548 5545 5542 5539 5536 5533 5531 5528 5526 5523 5521 5520 5518 5517 5516 5515 5515 5516 5517 5518 5520 5522 5524 5526 5528 5530 5532 5535 5538 5542 5545 5549 5552
5549 5549 5547 5547 5547 5546 5545 5544 5543 5541 5540 5538 5535 5532 5530 5527 5523 5521 5518 5515 5513 5511 5509 5507 5506 5504 5503 5503 5503 5504 5505 5506 5508 5510 5512 5514 5516 5518 5521 5524 5527 5531 5534 5538
5540 5539 5538 5539 5540 5538 5536 5535 5534 5532 5532 5529 5526 5523 5520 5517 5514 5510 5508 5505 5503 5501 5499 5497 5495 5494 5493 5492 5491 5491 5492 5494 5495 5496 5498 5500 5502 5504 5507 5510 5514 5517 5520 5524
5531 5531 5530 5534 5531 5529 5528 5527 5525 5523 5521 5519 5516 5513 5510 5507 5504 5501 5498 5496 5493 5491 5488 5487 5485 5483 5482 5481 5481 5481 5481 5482 5482 5484 5485 5487 5488 5491 5494 5497 5500 5503 5506 5510
5523 5521 5522 5524 5523 5520 5518 5518 5516 5514 5512 5510 5507 5504 5502 5498 5495 5492 5489 5486 5484 5481 5478 5477 5475 5474 5473 5472 5471 5471 5471 5471 5472 5472 5473 5475 5476 5479 5481 5484 5487 5490 5493 5496
5515 5514 5514 5516 5514 5511 5511 5509 5508 5505 5503 5501 5498 5496 5494 5490 5486 5483 5480 5477 5474 5472 5469 5467 5466 5464 5463 5462 5461 5462 5462 5462 5461 5462 5462 5463 5465 5467 5470 5472 5475 5478 5481 5484
5508 5506 5506 5507 5505 5504 5503 5502 5499 5497 5494 5492 5489 5487 5484 5480 5477 5474 5471 5468 5465 5463 5460 5458 5456 5455 5454 5453 5453 5453 5452 5452 5452 5453 5453 5454 5455 5457 5459 5461 5463 5466 5470 5472
5501 5499 5502 5498 5497 5496 5495 5492 5490 5488 5485 5483 5480 5477 5474 5471 5468 5465 5462 5459 5456 5454 5451 5449 5448 5447 5446 5445 5444 5444 5444 5444 5444 5444 5445 5445 5446 5448 5449 5451 5453 5455 5458 5461
5495 5495 5492 5490 5489 5487 5486 5484 5482 5479 5477 5474 5471 5468 5466 5463 5459 5456 5453 5451 5448 5445 5443 5441 5439 5438 5437 5437 5436 5436 5436 5436 5436 5436 5437 5437 5438 5439 5440 5441 5443 5445 5447 5449
5486 5486 5484 5482 5480 5479 5477 5475 5473 5471 5468 5466 5463 5460 5457 5454 5451 5448 5445 5442 5440 5437 5435 5433 5431 5430 5429 5429 5428 5428 5428 5428 5428 5428 5429 5429 5429 5429 5430 5432 5433 5435 5436 5439
5478 5477 5476 5474 5473 5471 5469 5467 5464 5462 5459 5457 5454 5451 5448 5445 5442 5439 5437 5434 5431 5429 5427 5425 5423 5422 5421 5420 5420 5420 5420 5420 5420 5420 5420 5420 5421 5421 5421 5422 5422 5424 5426 5428
5471 5469 5467 5466 5464 5462 5460 5458 5456 5454 5451 5448 5445 5442 5439 5436 5433 5431 5428 5426 5423 5421 5419 5417 5416 5414 5413 5412 5412 5412 5412 5412 5412 5412 5412 5412 5412 5412 5412 5412 5413 5414 5415 5417
5462 5460 5458 5456 5455 5453 5451 5449 5447 5445 5442 5440 5437 5434 5431 5428 5425 5422 5420 5418 5415 5413 5411 5409 5408 5406 5405 5404 5404 5403 5403 5403 5403 5403 5404 5404 5403 5403 5404 5404 5404 5404 5405 5406
5453 5451 5449 5448 5446 5444 5442 5441 5438 5436 5434 5431 5428 5425 5422 5420 5417 5414 5412 5410 5408 5406 5403 5402 5400 5399 5397 5396 5395 5395 5395 5395 5395 5395 5395 5394 5394 5394 5395 5396 5396 5396 5396 5397
5445 5443 5441 5439 5438 5436 5434 5432 5430 5428 5425 5423 5420 5417 5414 5412 5409 5407 5404 5402 5400 5398 5396 5394 5392 5391 5389 5388 5388 5387 5387 5386 5386 5386 5385 5385 5385 5386 5386 5386 5387 5387 5387 5388
5437 5435 5433 5431 5429 5428 5426 5424 5422 5420 5417 5414 5412 5409 5406 5404 5401 5399 5396 5394 5392 5390 5388 5386 5385 5383 5382 5380 5380 5379 5378 5378 5377 5377 5377 5377 5377 5377 5377 5378 5378 5378 5379 5379
5429 5427 5425 5424 5422 5420 5418 5416 5414 5411 5409 5406 5404 5401 5398 5396 5394 5391 5389 5386 5384 5382 5380 5379 5377 5375 5374 5372 5371 5371 5370 5370 5369 5369 5369 5369 5369 5369 5369 5369 5369 5370 5370 5370
5421 5419 5417 5416 5414 5412 5410 5408 5406 5404 5401 5399 5396 5393 5390 5388 5386 5384 5381 5379 5377 5375 5373 5371 5369 5368 5366 5365 5364 5363 5362 5362 5362 5362 5361 5361 5361 5361 5361 5361 5361 5362 5362 5363
5413 5412 5410 5408 5406 5405 5403 5401 5398 5396 5393 5391 5388 5386 5383 5381 5378 5376 5374 5372 5370 5368 5365 5363 5362 5360 5358 5357 5356 5355 5355 5355 5354 5354 5354 5354 5353 5353 5353 5353 5354 5354 5355 5355
5406 5404 5402 5401 5399 5397 5395 5393 5391 5389 5386 5384 5381 5379 5376 5374 5371 5369 5367 5364 5362 5360 5358 5356 5354 5352 5351 5350 5349 5348 5348 5348 5348 5347 5347 5347 5346 5346 5346 5346 5346 5347 5347 5347
5399 5397 5395 5393 5391 5389 5388 5386 5383 5381 5379 5377 5374 5372 5369 5367 5364 5362 5359 5357 5355 5353 5351 5349 5347 5345 5344 5343 5342 5342 5341 5341 5341 5341 5341 5340 5340 5340 5339 5340 5340 5340 5340 5340
5392 5390 5388 5386 5384 5382 5380 5378 5376 5374 5372 5369 5367 5365 5362 5360 5357 5354 5352 5350 5348 5346 5344 5342 5340 5339 5338 5336 5336 5335 5335 5335 5335 5334 5334 5334 5333 5333 5333 5332 5332 5333 5333 5333
5385 5383 5381 5378 5376 5374 5372 5370 5368 5366 5364 5362 5359 5357 5355 5352 5349 5347 5345 5342 5340 5338 5337 5335 5334 5332 5331 5330 5329 5329 5328 5328 5328 5328 5327 5327 5327 5326 5326 5325 5325 5325 5325 5325
5378 5376 5374 5372 5369 5367 5365 5363 5361 5358 5356 5354 5351 5349 5346 5344 5341 5339 5336 5334 5333 5331 5329 5328 5327 5325 5324 5324 5323 5322 5322 5321 5321 5321 5320 5320 5320 5319 5319 5318 5318 5317 5317 5317
5372 5370 5367 5365 5363 5360 5358 5355 5353 5351 5348 5346 5343 5341 5338 5336 5333 5331 5329 5327 5325 5323 5322 5321 5319 5318 5318 5317 5316 5315 5315 5314 5314 5314 5313 5313 5312 5312 5311 5311 5310 5310 5310 5310
5365 5363 5361 5358 5356 5353 5351 5348 5346 5343 5340 5338 5335 5332 5330 5327 5325 5323 5321 5320 5318 5316 5315 5313 5312 5311 5310 5309 5309 5308 5308 5307 5307 5306 5306 5305 5305 5304 5304 5303 5303 5302 5302 5302
5359 5356 5354 5351 5349 5346 5343 5341 5338 5335 5332 5329 5327 5324 5322 5319 5318 5316 5314 5312 5310 5309 5307 5306 5305 5304 5303 5302 5301 5300 5300 5299 5299 5298 5298 5297 5297 5296 5296 5295 5295 5294 5294 5294